PBO Station Position Time Series. Reference Frame : NAM14
Format Version,1.1.0
4-character ID,SIBE
Station name,Siberia____SCIGN
Begin Date, 1999-12-21
End Date, 2007-07-24
Release Date, 2021-02-19
Reference position, 34.6242583366 North Latitude, -116.0155827701 East Longitude, 362.50053 meters elevation,
Date, North (mm), East (mm), Vertical (mm), North Std. Deviation (mm), East Std. Deviation (mm),              Vertical Std. Deviation (mm), Quality,
1999-12-21,0.00, 0.00, 0.00, 3.52, 3.08, 14.28, repro,
1999-12-22,1.47, -1.28, -8.88, 3.35, 2.87, 13.41, repro,
1999-12-23,2.66, -1.05, -21.37, 3.34, 3.16, 13.32, repro,
1999-12-24,0.60, -1.01, -8.29, 3.44, 3.28, 14.41, repro,
1999-12-25,1.89, -2.23, -15.85, 3.04, 2.96, 12.47, repro,
1999-12-26,2.10, -0.68, -9.99, 3.05, 2.85, 12.28, repro,
1999-12-27,-0.55, -1.12, -14.48, 4.06, 4.04, 16.59, repro,
2000-02-03,0.41, 0.41, -10.70, 3.98, 3.15, 15.87, repro,
2000-02-04,-0.71, -0.75, 0.96, 2.11, 1.82, 8.53, repro,
2000-02-05,-2.71, -1.20, 0.77, 2.21, 1.93, 8.83, repro,
2000-02-06,-0.22, 0.90, -2.56, 2.27, 2.05, 9.21, repro,
2000-02-07,0.32, -0.11, -9.26, 2.22, 1.97, 8.89, repro,
2000-02-08,-1.21, -0.54, 1.46, 2.10, 1.90, 8.73, repro,
2000-02-09,-0.30, 0.65, -7.27, 2.05, 1.94, 8.09, repro,
2000-02-10,-1.14, 0.97, -4.63, 2.02, 1.79, 7.89, repro,
2000-02-11,-1.49, -0.85, -3.45, 1.95, 1.72, 7.65, repro,
2000-02-12,-1.63, 1.48, -9.80, 2.02, 1.77, 7.94, repro,
2000-02-13,-0.89, -1.40, 3.48, 1.98, 1.74, 7.79, repro,
2000-02-14,-0.71, -0.33, 1.63, 2.01, 1.76, 7.88, repro,
2000-02-15,0.67, -0.81, -5.34, 2.06, 1.79, 7.95, repro,
2000-02-16,-0.52, -0.87, -10.25, 2.01, 1.75, 7.92, repro,
2000-02-17,-1.91, -1.02, -0.81, 1.98, 1.74, 7.79, repro,
2000-02-18,-0.10, 0.29, -13.22, 1.99, 1.74, 7.80, repro,
2000-02-19,-0.55, -1.02, -10.26, 2.03, 1.76, 7.88, repro,
2000-02-20,-0.25, -0.03, -11.06, 2.07, 1.78, 8.04, repro,
2000-02-21,-0.46, 0.73, -22.39, 2.07, 1.76, 8.06, repro,
2000-02-22,0.27, -0.91, -9.47, 2.02, 1.74, 7.93, repro,
2000-02-23,0.28, -0.83, -12.30, 2.03, 1.82, 8.11, repro,
2000-02-24,-3.87, 1.32, -1.87, 3.13, 2.68, 11.98, repro,
2000-02-25,-0.86, 1.30, -6.96, 1.99, 1.72, 7.72, repro,
2000-02-26,-0.35, -0.78, -5.60, 2.18, 1.94, 8.40, repro,
2000-02-27,-0.54, -0.96, -8.43, 2.02, 1.72, 7.83, repro,
2000-02-28,-1.85, -0.16, -6.73, 2.13, 1.85, 8.33, repro,
2000-02-29,-1.71, -0.71, -9.07, 2.19, 1.88, 8.69, repro,
2000-03-01,-5.06, 0.74, 5.60, 2.61, 2.78, 11.45, repro,
2000-03-02,-2.02, -0.95, -8.00, 2.24, 2.04, 8.61, repro,
2000-03-03,-0.56, -0.37, -3.08, 2.20, 1.92, 9.04, repro,
2000-03-04,-1.53, -0.73, -9.31, 2.18, 1.89, 8.55, repro,
2000-03-05,-2.01, 0.52, -5.86, 2.60, 2.22, 10.02, repro,
2000-03-06,-1.77, -3.98, -0.57, 4.02, 3.79, 15.45, repro,
2000-03-07,0.04, -1.05, -7.55, 2.28, 2.04, 9.04, repro,
2000-03-08,-0.94, -0.57, -7.05, 2.17, 1.86, 8.67, repro,
2000-03-09,-1.08, -0.41, -17.15, 2.28, 1.95, 8.98, repro,
2000-03-10,0.13, 0.30, -18.18, 2.35, 2.03, 9.10, repro,
2000-03-11,-1.58, 0.18, -19.58, 2.21, 1.98, 8.59, repro,
2000-03-12,-1.49, 0.54, -12.47, 2.53, 2.23, 9.78, repro,
2000-03-13,-1.34, -1.62, -13.95, 2.78, 2.54, 10.77, repro,
2000-03-14,-1.42, -1.17, -0.02, 2.25, 2.10, 8.72, repro,
2000-03-15,-0.48, -0.41, -0.26, 2.14, 2.00, 8.32, repro,
2000-03-16,-1.33, -1.67, -4.14, 2.25, 2.05, 8.84, repro,
2000-03-17,-0.71, 0.19, -8.94, 2.15, 1.98, 8.49, repro,
2000-03-18,-1.18, -0.77, -12.95, 2.20, 2.02, 8.40, repro,
2000-03-19,-1.39, 0.76, -7.57, 2.16, 1.96, 8.28, repro,
2000-03-20,-0.56, 0.26, -10.05, 2.63, 2.12, 10.12, repro,
2000-03-21,-0.92, -1.41, -5.80, 4.34, 3.82, 17.78, repro,
2000-03-22,-2.26, -0.22, -12.87, 2.25, 2.07, 8.81, repro,
2000-03-23,-1.60, -0.79, -11.36, 2.23, 1.98, 8.57, repro,
2000-03-24,-3.17, -0.44, -13.39, 2.28, 2.18, 8.83, repro,
2000-03-25,-3.07, 1.02, -4.31, 2.07, 1.92, 8.05, repro,
2000-03-26,-2.52, -0.02, -10.55, 2.34, 2.00, 8.87, repro,
2000-03-27,-2.02, 0.50, -6.50, 2.26, 1.82, 8.74, repro,
2000-03-28,-1.88, 1.05, -3.02, 2.15, 1.85, 8.17, repro,
2000-03-29,-1.63, 1.17, -6.61, 2.20, 1.88, 8.42, repro,
2000-03-30,-2.42, 4.36, -12.53, 4.46, 3.63, 16.30, repro,
2000-03-31,3.17, 5.09, -19.53, 4.72, 3.96, 17.76, repro,
2000-04-01,-2.05, 0.30, -14.94, 3.52, 2.79, 13.84, repro,
2000-04-02,-3.89, 1.57, 0.95, 5.55, 4.81, 24.18, repro,
2000-04-03,58.75, 15.79, -171.94, 121.39, 135.56, 367.66, repro,
2000-04-11,-6.14, -0.91, 1.76, 5.28, 4.89, 21.46, repro,
2000-04-12,-2.85, 1.76, -8.48, 2.26, 2.06, 8.86, repro,
2000-04-13,-2.34, 0.30, -16.93, 2.22, 2.05, 8.85, repro,
2000-04-14,-2.05, -0.28, -6.73, 2.17, 1.80, 8.51, repro,
2000-04-15,-0.78, 1.17, -4.88, 2.07, 1.84, 8.09, repro,
2000-04-16,-3.79, 0.96, -8.16, 2.06, 1.81, 8.13, repro,
2000-04-17,-1.46, 1.04, -7.14, 2.37, 2.08, 9.07, repro,
2000-04-18,1.11, 3.28, -6.34, 2.61, 2.30, 9.69, repro,
2000-04-19,-2.04, 1.37, -6.05, 2.12, 1.92, 8.50, repro,
2000-04-20,-1.81, 1.28, -9.65, 2.16, 2.00, 8.50, repro,
2000-04-21,-0.55, 2.47, -8.32, 2.19, 1.98, 8.54, repro,
2000-04-22,-5.02, 1.19, 3.63, 2.07, 1.85, 8.15, repro,
2000-04-23,-2.08, 1.19, 0.45, 2.09, 1.88, 8.26, repro,
2000-04-24,-1.89, 1.32, 0.25, 2.12, 1.94, 8.47, repro,
2000-04-25,-3.38, 2.00, -9.58, 2.12, 2.03, 8.29, repro,
2000-04-26,-2.85, 1.23, -5.43, 2.31, 2.17, 9.16, repro,
2000-04-27,-2.99, 1.09, -12.61, 2.13, 2.08, 8.41, repro,
2000-04-28,-1.83, -0.68, -10.92, 2.13, 2.07, 8.53, repro,
2000-04-29,-4.07, 3.37, -1.37, 2.12, 1.97, 8.43, repro,
2000-04-30,-1.56, 0.04, -10.50, 2.15, 2.07, 8.57, repro,
2000-05-01,-2.43, -0.20, -5.04, 2.15, 2.14, 8.48, repro,
2000-05-02,-3.10, 0.60, -1.41, 2.26, 2.23, 8.94, repro,
2000-05-03,-3.02, 0.15, -2.29, 2.23, 2.14, 8.86, repro,
2000-05-04,-3.07, 0.40, -2.40, 2.11, 2.06, 8.40, repro,
2000-05-05,-1.86, 0.00, 6.78, 2.12, 1.99, 8.36, repro,
2000-05-06,-2.71, -0.24, 3.95, 2.10, 1.94, 8.30, repro,
2000-05-07,-4.13, 3.21, 8.80, 2.21, 2.24, 8.84, repro,
2000-05-08,-1.01, 2.76, 21.88, 2.17, 2.00, 8.70, repro,
2000-05-09,-2.30, 0.21, -2.27, 2.11, 1.94, 8.40, repro,
2000-05-10,-3.80, -1.60, 14.81, 2.10, 1.98, 8.42, repro,
2000-05-11,-2.06, 3.33, 4.60, 2.10, 1.85, 8.22, repro,
2000-05-12,-2.90, 1.83, 3.45, 2.15, 1.96, 8.48, repro,
2000-05-13,-3.88, 1.08, 2.70, 4.33, 3.97, 16.72, repro,
2000-05-16,-4.09, 4.97, 20.22, 2.16, 1.99, 8.82, repro,
2000-05-17,-6.10, 4.77, 11.74, 2.11, 1.88, 8.31, repro,
2000-05-18,-3.44, 0.77, 15.36, 2.11, 1.93, 8.41, repro,
2000-05-19,-3.69, 0.80, 0.22, 2.10, 1.96, 8.39, repro,
2000-05-20,-2.89, 1.85, 8.93, 2.10, 1.93, 8.39, repro,
2000-05-21,-3.47, 1.59, -2.53, 2.13, 1.94, 8.43, repro,
2000-05-22,-2.18, 2.05, -0.34, 2.09, 1.77, 8.23, repro,
2000-05-23,-2.93, 1.83, 4.06, 2.23, 1.81, 8.44, repro,
2000-05-24,-1.74, 1.90, 7.98, 2.26, 1.98, 8.77, repro,
2000-05-25,-2.76, 2.25, 3.60, 2.14, 2.05, 8.68, repro,
2000-05-26,-3.90, 3.74, 11.58, 2.17, 2.02, 8.57, repro,
2000-05-27,-2.50, 1.53, 0.13, 2.20, 2.03, 8.63, repro,
2000-05-28,-3.10, 1.45, -3.51, 2.15, 1.79, 8.43, repro,
2000-05-29,-3.25, 1.73, 4.17, 2.05, 1.76, 8.07, repro,
2000-05-30,-2.48, 0.92, -3.47, 2.03, 1.72, 8.02, repro,
2000-05-31,-1.80, 1.41, 2.31, 2.16, 1.98, 8.40, repro,
2000-06-01,-2.67, 1.50, 0.38, 2.17, 1.90, 8.59, repro,
2000-06-02,-2.66, 2.03, 4.89, 2.08, 1.99, 8.18, repro,
2000-06-04,-2.97, 1.73, -1.60, 1.99, 1.80, 7.80, repro,
2000-06-05,-2.38, 1.28, 1.25, 1.96, 1.75, 7.71, repro,
2000-06-06,-2.81, 2.98, 2.25, 2.54, 2.24, 9.55, repro,
2000-06-07,-3.45, 2.27, 0.56, 2.06, 1.96, 8.04, repro,
2000-06-08,-4.21, 1.21, 1.85, 2.18, 1.96, 8.61, repro,
2000-06-09,-2.89, 1.12, 2.77, 2.08, 1.86, 8.18, repro,
2000-06-11,-2.81, 1.53, 1.72, 2.08, 1.96, 8.03, repro,
2000-06-12,-3.43, 2.77, -2.21, 2.65, 2.31, 10.32, repro,
2000-06-13,-4.57, 1.01, 2.34, 2.09, 1.85, 8.10, repro,
2000-06-14,-2.95, 2.01, 3.70, 2.26, 2.06, 8.77, repro,
2000-06-15,-4.06, 0.81, -0.71, 2.18, 1.87, 8.60, repro,
2000-06-16,-4.37, 2.49, 7.45, 2.04, 1.76, 8.11, repro,
2000-06-17,-3.95, 2.38, 0.88, 1.98, 1.73, 7.85, repro,
2000-06-18,-4.35, 2.99, 2.45, 2.12, 1.88, 8.20, repro,
2000-06-19,-5.68, 2.12, 10.13, 2.10, 2.06, 8.39, repro,
2000-06-20,-5.01, 0.71, 7.33, 2.09, 1.88, 8.27, repro,
2000-06-21,-4.05, 1.97, 5.17, 2.08, 1.84, 8.34, repro,
2000-06-22,-5.75, 1.75, 2.99, 2.22, 2.09, 8.88, repro,
2000-06-23,-4.14, 2.05, -3.58, 2.12, 1.91, 8.39, repro,
2000-06-24,-3.75, -1.14, 8.48, 2.11, 2.00, 8.64, repro,
2000-06-25,-5.19, 1.79, -4.91, 2.05, 1.78, 8.11, repro,
2000-06-26,-3.79, 1.90, 2.71, 2.19, 1.95, 8.76, repro,
2000-06-27,-2.91, 2.29, 8.42, 2.48, 2.04, 9.77, repro,
2000-06-28,-4.68, 0.44, 2.90, 2.14, 1.80, 8.66, repro,
2000-06-29,-4.22, 1.65, 0.89, 2.08, 1.82, 8.35, repro,
2000-06-30,-5.79, -0.07, -7.14, 2.09, 1.88, 8.28, repro,
2000-07-01,-4.84, 2.73, 0.88, 2.12, 1.99, 8.36, repro,
2000-07-02,-3.79, 2.02, 6.10, 2.13, 1.75, 8.24, repro,
2000-07-03,-4.48, 0.75, 2.90, 2.14, 2.02, 8.50, repro,
2000-07-04,-4.84, -0.15, 0.56, 2.12, 1.96, 8.48, repro,
2000-07-05,-5.71, 4.04, -5.24, 2.17, 1.99, 8.79, repro,
2000-07-06,-4.82, 2.83, 0.09, 2.09, 1.94, 8.31, repro,
2000-07-07,-4.52, 1.73, -2.13, 2.11, 1.95, 8.37, repro,
2000-07-08,-5.17, -0.02, -4.66, 2.12, 1.96, 8.39, repro,
2000-07-09,-4.25, 0.51, -10.48, 2.18, 1.97, 8.62, repro,
2000-07-10,-4.63, 1.62, -3.21, 2.20, 1.94, 8.53, repro,
2000-07-11,-3.70, 1.40, 8.77, 2.11, 1.95, 8.28, repro,
2000-07-12,-4.48, 1.63, 1.81, 2.07, 1.97, 8.14, repro,
2000-07-14,-6.44, -0.13, -2.59, 2.70, 2.20, 10.23, repro,
2000-07-15,-5.12, 1.33, -4.68, 2.11, 1.83, 8.21, repro,
2000-07-17,-3.37, 3.46, 1.03, 2.05, 1.79, 8.04, repro,
2000-07-18,-4.47, 1.98, -0.59, 2.11, 1.77, 8.10, repro,
2000-07-19,-5.68, 0.73, -5.12, 2.16, 1.83, 8.50, repro,
2000-07-20,-4.16, 1.16, -2.05, 2.04, 1.75, 8.02, repro,
2000-07-21,-4.39, 1.63, -4.17, 2.08, 1.82, 8.16, repro,
2000-07-22,-5.68, 3.27, 7.01, 2.14, 1.82, 8.56, repro,
2000-07-23,-3.68, 1.94, 5.31, 2.11, 1.75, 8.20, repro,
2000-07-24,-6.64, 1.65, 3.14, 2.11, 1.79, 8.08, repro,
2000-07-25,-5.17, 1.64, 2.27, 2.06, 1.77, 7.99, repro,
2000-07-26,-5.06, 2.48, 3.21, 2.09, 1.78, 8.10, repro,
2000-07-27,-5.71, 2.45, 11.20, 2.17, 1.78, 8.33, repro,
2000-07-28,-3.69, 2.07, 2.41, 2.20, 1.85, 8.61, repro,
2000-07-29,-5.73, 1.80, -0.32, 2.18, 1.82, 8.53, repro,
2000-07-30,-4.50, 2.47, 6.81, 2.07, 1.75, 7.98, repro,
2000-07-31,-5.38, 2.01, 8.21, 2.08, 1.75, 8.02, repro,
2000-08-01,-5.15, 4.90, 4.43, 2.17, 1.87, 8.79, repro,
2000-08-02,-6.67, 0.49, -7.62, 2.17, 1.84, 8.53, repro,
2000-08-03,-7.09, 2.32, 12.84, 2.12, 1.82, 8.38, repro,
2000-08-04,-6.23, 3.34, 1.14, 2.17, 1.81, 8.45, repro,
2000-08-05,-6.35, 2.70, -2.20, 2.10, 1.82, 8.26, repro,
2000-08-06,-8.90, 1.90, -0.82, 3.30, 2.52, 12.35, repro,
2000-08-07,-5.33, 1.31, 2.19, 2.19, 1.87, 8.46, repro,
2000-08-08,-4.95, 4.53, 8.80, 2.11, 1.88, 8.29, repro,
2000-08-09,-5.45, 0.72, 5.42, 2.30, 1.95, 8.89, repro,
2000-08-10,-6.58, 2.62, 6.02, 2.43, 1.89, 9.13, repro,
2000-08-17,-3.82, 1.06, 4.28, 2.50, 2.14, 9.63, repro,
2000-08-18,-6.15, 5.22, -4.99, 2.32, 2.00, 9.07, repro,
2000-08-19,-5.45, 3.48, -0.96, 2.24, 1.96, 8.76, repro,
2000-08-20,-4.48, 3.26, 1.04, 2.33, 2.03, 9.19, repro,
2000-08-21,-5.61, 3.00, -1.20, 2.15, 1.94, 8.35, repro,
2000-08-22,-5.33, 3.35, -3.68, 2.23, 1.81, 8.35, repro,
2000-08-23,-6.65, 3.91, -8.47, 2.17, 1.88, 8.17, repro,
2000-08-24,-4.27, 3.21, -8.45, 2.38, 1.87, 9.04, repro,
2000-08-25,-5.96, 2.58, -3.18, 2.33, 2.07, 8.97, repro,
2000-08-26,-5.53, 3.89, -5.75, 2.30, 1.98, 8.94, repro,
2000-08-27,-6.03, 2.62, 11.93, 2.23, 1.87, 8.57, repro,
2000-08-28,-5.13, 3.48, -0.73, 2.25, 1.85, 8.56, repro,
2000-08-29,-6.59, 3.80, -2.03, 2.13, 1.81, 8.26, repro,
2000-08-31,-6.19, 2.56, 3.57, 2.18, 1.83, 8.27, repro,
2000-09-01,-4.60, 4.43, -6.26, 2.26, 1.93, 8.46, repro,
2000-09-02,-5.54, 3.08, -0.05, 2.22, 1.91, 8.31, repro,
2000-09-03,-5.78, 2.99, 8.63, 2.19, 1.90, 8.24, repro,
2000-09-04,-5.56, 2.10, 3.01, 2.38, 2.07, 8.74, repro,
2000-09-05,-3.91, 1.32, -4.19, 2.45, 2.12, 9.26, repro,
2000-09-06,-5.98, 4.21, 4.61, 2.23, 1.95, 8.49, repro,
2000-09-07,-7.37, 2.89, -3.39, 2.19, 1.96, 8.83, repro,
2000-09-08,-7.38, 2.73, 3.25, 2.26, 2.00, 8.71, repro,
2000-09-09,-6.81, 2.63, 3.23, 2.28, 2.03, 8.75, repro,
2000-09-10,-6.87, 4.42, -1.75, 2.32, 2.10, 9.07, repro,
2000-09-11,-5.59, 6.67, 0.97, 2.29, 2.09, 8.70, repro,
2000-09-12,-7.49, 6.26, -4.74, 2.32, 2.06, 9.04, repro,
2000-09-14,-6.19, 4.14, -6.09, 2.48, 2.11, 9.59, repro,
2000-09-15,-6.33, 4.27, 1.81, 2.20, 1.86, 8.55, repro,
2000-09-16,-6.56, 3.61, 6.43, 2.08, 2.04, 8.17, repro,
2000-09-17,-6.98, 4.36, -4.06, 2.21, 2.01, 8.66, repro,
2000-09-18,-7.47, 4.66, -0.17, 2.14, 1.92, 8.50, repro,
2000-09-19,-7.38, 4.79, -2.41, 2.20, 1.98, 8.64, repro,
2000-09-20,-5.98, 4.39, 5.84, 2.35, 2.09, 8.94, repro,
2000-09-21,-6.74, 3.36, 4.31, 2.53, 2.21, 9.80, repro,
2000-09-22,-7.79, 4.59, 2.23, 2.52, 2.32, 9.71, repro,
2000-09-23,-6.32, 4.43, -5.69, 2.12, 1.92, 8.30, repro,
2000-09-24,-6.25, 3.92, -2.75, 2.26, 2.19, 8.89, repro,
2000-09-25,-7.28, 4.70, -6.00, 2.41, 2.32, 9.27, repro,
2000-09-26,-6.28, 5.48, 1.65, 2.16, 2.03, 8.49, repro,
2000-09-27,-7.51, 6.09, -6.75, 2.22, 2.19, 8.79, repro,
2000-09-28,-8.15, 3.84, -1.29, 2.13, 2.27, 8.66, repro,
2000-09-29,-6.68, 3.54, -0.20, 2.17, 2.06, 8.54, repro,
2000-09-30,-7.95, 4.34, 1.74, 2.09, 2.14, 8.15, repro,
2000-10-01,-6.91, 1.66, 2.36, 2.17, 2.14, 8.63, repro,
2000-10-02,-6.86, 4.90, 10.30, 2.16, 2.10, 8.49, repro,
2000-10-03,-7.29, 4.58, -2.79, 2.39, 2.20, 9.56, repro,
2000-10-04,-8.17, 3.91, 5.13, 2.09, 1.95, 8.23, repro,
2000-10-05,-8.15, 5.38, 4.46, 2.15, 2.21, 8.31, repro,
2000-10-06,-8.38, 4.83, -2.28, 2.03, 2.05, 8.23, repro,
2000-10-07,-7.50, 4.69, -2.24, 2.04, 2.04, 8.25, repro,
2000-10-08,-6.04, 4.16, -1.37, 2.01, 1.96, 8.08, repro,
2000-10-09,-7.44, 5.64, 5.83, 2.00, 1.76, 7.94, repro,
2000-10-10,-7.53, 5.17, 11.88, 2.08, 1.78, 8.19, repro,
2000-10-11,-7.47, 7.01, 0.13, 2.10, 1.87, 8.27, repro,
2000-10-12,-7.49, 5.64, -2.40, 2.07, 1.86, 8.22, repro,
2000-10-13,-7.09, 5.48, 4.03, 2.07, 2.05, 8.29, repro,
2000-10-14,-6.79, 3.93, 3.81, 2.14, 1.91, 8.34, repro,
2000-10-15,-7.75, 4.36, 0.96, 2.31, 2.35, 9.27, repro,
2000-10-16,-7.31, 4.60, 3.74, 2.17, 2.12, 8.53, repro,
2000-10-17,-6.21, 2.73, 7.81, 2.25, 2.08, 8.76, repro,
2000-10-18,-7.01, 4.10, 6.03, 2.19, 1.97, 8.32, repro,
2000-10-19,-6.81, 4.26, 4.99, 2.21, 2.19, 9.14, repro,
2000-10-20,-6.90, 5.29, 3.65, 2.25, 1.99, 8.86, repro,
2000-10-21,-7.32, 4.52, 2.20, 2.16, 2.07, 8.53, repro,
2000-10-22,-6.63, 3.89, 0.63, 2.45, 2.15, 9.81, repro,
2000-10-23,-7.43, 4.77, 2.03, 2.22, 1.85, 8.84, repro,
2000-10-24,-7.74, 5.16, 3.51, 2.09, 1.79, 8.20, repro,
2000-10-25,-6.73, 5.32, 5.81, 2.07, 1.81, 7.95, repro,
2000-10-26,-5.27, 5.44, -2.27, 2.10, 1.84, 8.24, repro,
2000-10-27,-6.92, 3.60, 5.72, 2.23, 1.88, 8.97, repro,
2000-10-28,-7.16, 4.67, 8.11, 2.15, 1.83, 8.38, repro,
2000-10-29,-7.87, 4.29, 6.24, 2.03, 1.75, 7.95, repro,
2000-10-30,-9.00, 3.92, 6.57, 2.13, 1.85, 8.20, repro,
2000-10-31,-8.87, 6.11, 6.79, 2.12, 1.83, 8.22, repro,
2000-11-01,-7.66, 4.66, 4.43, 2.10, 1.83, 8.39, repro,
2000-11-02,-7.47, 3.78, 7.15, 2.11, 1.94, 8.37, repro,
2000-11-03,-7.19, 4.74, 1.53, 2.29, 1.98, 8.86, repro,
2000-11-04,-7.22, 4.75, 9.30, 2.08, 1.79, 8.07, repro,
2000-11-05,-8.73, 4.89, 6.52, 2.16, 1.85, 8.29, repro,
2000-11-06,-8.32, 5.46, 7.66, 2.14, 1.91, 8.45, repro,
2000-11-07,-11.89, 6.21, -0.66, 2.19, 1.89, 8.42, repro,
2000-11-08,-7.48, 5.11, 3.00, 2.06, 1.82, 8.06, repro,
2000-11-09,-7.86, 4.32, 8.65, 2.33, 2.05, 8.74, repro,
2000-11-10,-8.21, 4.85, 9.93, 2.34, 1.95, 9.13, repro,
2000-11-11,-9.78, 3.76, 5.62, 2.08, 1.77, 8.04, repro,
2000-11-12,-6.67, 4.49, 8.76, 1.99, 1.74, 7.80, repro,
2000-11-13,-7.09, 4.46, 0.96, 2.11, 1.90, 8.16, repro,
2000-11-14,-8.32, 2.94, 5.11, 2.15, 1.99, 8.28, repro,
2000-11-15,-7.64, 4.41, 9.78, 2.23, 1.94, 8.52, repro,
2000-11-16,-8.07, 5.01, 9.47, 2.21, 1.91, 8.41, repro,
2000-11-17,-8.21, 4.32, 2.66, 2.07, 1.83, 8.05, repro,
2000-11-18,-6.06, 6.19, -3.27, 2.10, 1.89, 8.09, repro,
2000-11-19,-7.52, 4.95, 1.29, 2.24, 2.00, 8.68, repro,
2000-11-20,-7.41, 4.38, 0.79, 2.19, 1.95, 8.45, repro,
2000-11-21,-8.58, 5.49, 0.85, 2.19, 1.95, 8.50, repro,
2000-11-22,-8.54, 6.40, 0.46, 2.10, 1.88, 8.17, repro,
2000-11-23,-7.46, 4.35, 0.16, 2.13, 1.86, 8.24, repro,
2000-11-24,-6.77, 4.27, 5.33, 2.10, 1.84, 8.22, repro,
2000-11-25,-8.28, 4.27, 7.24, 2.20, 2.01, 8.88, repro,
2000-11-26,-8.83, 4.95, 6.27, 2.30, 2.12, 9.12, repro,
2000-11-27,-7.22, 4.75, 3.99, 2.33, 2.06, 9.19, repro,
2000-11-28,-7.96, 4.90, 1.97, 2.12, 1.94, 8.47, repro,
2000-11-29,-8.48, 4.85, 4.98, 2.27, 2.13, 9.18, repro,
2000-11-30,-9.33, 4.65, 4.54, 2.20, 1.99, 8.76, repro,
2000-12-01,-8.13, 5.94, 1.61, 2.28, 1.94, 9.19, repro,
2000-12-02,-8.44, 4.87, -4.42, 2.34, 2.13, 9.38, repro,
2000-12-03,-9.15, 4.46, -3.64, 2.43, 2.18, 9.42, repro,
2000-12-04,-8.84, 3.54, 2.16, 2.60, 2.39, 10.68, repro,
2000-12-05,-8.10, 4.52, -4.33, 2.32, 2.08, 9.43, repro,
2000-12-06,-8.45, 4.65, -2.51, 2.28, 2.02, 9.34, repro,
2000-12-07,-9.61, 5.00, 2.10, 2.14, 1.94, 8.46, repro,
2000-12-08,-8.86, 5.41, 4.69, 2.39, 2.18, 9.67, repro,
2000-12-09,-8.74, 6.03, 4.32, 2.24, 2.03, 8.88, repro,
2000-12-10,-9.11, 5.30, -1.26, 2.32, 2.12, 9.14, repro,
2000-12-11,-9.29, 4.28, 6.41, 2.07, 1.84, 8.32, repro,
2000-12-12,-8.66, 4.87, 6.21, 2.04, 1.80, 8.24, repro,
2000-12-13,-8.06, 5.27, 0.01, 2.04, 1.73, 7.99, repro,
2000-12-14,-9.52, 4.70, -5.86, 1.96, 1.74, 7.81, repro,
2000-12-15,-8.49, 4.15, 0.34, 1.99, 1.76, 7.93, repro,
2000-12-16,-8.36, 4.50, -7.42, 2.00, 1.76, 7.91, repro,
2000-12-17,-6.93, 3.19, -0.64, 2.08, 1.77, 8.00, repro,
2000-12-18,-8.17, 3.77, -9.31, 2.09, 1.83, 8.37, repro,
2000-12-19,-9.10, 3.89, -8.44, 2.23, 1.90, 8.96, repro,
2000-12-20,-8.27, 3.90, -5.61, 2.00, 1.76, 7.92, repro,
2000-12-21,-8.86, 4.11, -7.24, 2.11, 1.85, 8.46, repro,
2000-12-22,-8.92, 4.19, -6.40, 2.04, 1.74, 7.83, repro,
2000-12-23,-9.30, 4.03, -5.79, 2.01, 1.75, 7.94, repro,
2000-12-24,-9.09, 3.75, -6.52, 1.97, 1.72, 7.72, repro,
2000-12-25,-6.85, 5.69, -5.31, 1.96, 1.72, 7.72, repro,
2000-12-26,-9.47, 3.62, -6.16, 1.99, 1.74, 7.79, repro,
2000-12-27,-8.74, 4.51, -12.16, 2.04, 1.75, 7.99, repro,
2000-12-28,-9.63, 4.10, -6.40, 2.05, 1.74, 7.91, repro,
2000-12-29,-8.90, 4.10, -3.20, 1.98, 1.71, 7.74, repro,
2000-12-30,-8.94, 4.44, -4.55, 2.04, 1.78, 8.23, repro,
2000-12-31,-9.00, 3.77, -3.22, 2.26, 1.95, 9.02, repro,
2001-01-01,-9.86, 3.93, -0.43, 2.18, 1.87, 8.82, repro,
2001-01-02,-9.21, 3.49, -8.60, 2.19, 1.85, 8.83, repro,
2001-01-03,-8.72, 4.10, -5.09, 2.04, 1.84, 8.21, repro,
2001-01-04,-8.11, 4.14, -6.61, 2.04, 1.79, 8.06, repro,
2001-01-05,-7.91, 4.56, -2.81, 2.07, 1.82, 8.16, repro,
2001-01-06,-9.77, 3.42, 3.02, 2.14, 1.95, 8.71, repro,
2001-01-07,-8.64, 4.00, -2.87, 2.01, 1.74, 7.97, repro,
2001-01-08,-9.56, 2.83, 5.64, 2.08, 1.84, 8.37, repro,
2001-01-09,-8.19, 5.34, -0.53, 2.01, 1.74, 7.94, repro,
2001-01-10,-8.40, 5.37, 1.12, 2.07, 1.77, 8.10, repro,
2001-01-11,-8.32, 4.78, 6.25, 2.06, 1.79, 8.28, repro,
2001-01-12,-9.16, 4.49, -1.16, 2.07, 1.78, 8.04, repro,
2001-01-13,-8.43, 5.34, -0.43, 2.13, 1.79, 8.23, repro,
2001-01-14,-8.23, 5.62, -7.89, 2.33, 1.92, 8.97, repro,
2001-01-15,-8.51, 4.70, -3.88, 2.17, 1.86, 8.61, repro,
2001-01-16,-9.58, 4.88, -1.56, 2.11, 1.82, 8.41, repro,
2001-01-17,-8.73, 4.51, -4.26, 2.07, 1.76, 8.13, repro,
2001-01-18,-7.97, 5.65, -4.52, 2.16, 1.94, 8.63, repro,
2001-01-19,-8.92, 5.30, -2.31, 2.05, 1.79, 7.99, repro,
2001-01-20,-8.63, 4.46, -9.49, 1.95, 1.73, 7.79, repro,
2001-01-21,-10.03, 4.58, -4.25, 2.10, 1.82, 8.31, repro,
2001-01-22,-11.22, 6.29, -1.75, 2.00, 1.75, 7.97, repro,
2001-01-23,-10.46, 4.30, -6.73, 2.39, 2.08, 9.72, repro,
2001-01-24,-11.42, 7.08, -4.86, 2.15, 1.80, 8.32, repro,
2001-01-25,-9.67, 5.79, -11.14, 2.17, 1.85, 8.66, repro,
2001-01-26,-10.93, 4.97, -7.40, 2.24, 1.86, 8.81, repro,
2001-01-27,-11.41, 2.87, 4.01, 2.20, 1.90, 8.92, repro,
2001-01-28,-10.95, 4.15, -2.24, 2.16, 1.88, 8.59, repro,
2001-01-29,-9.80, 4.76, -3.06, 2.02, 1.74, 7.88, repro,
2001-01-30,-10.41, 6.01, -6.59, 2.07, 1.76, 7.99, repro,
2001-01-31,-9.42, 3.86, -8.82, 2.06, 1.82, 8.16, repro,
2001-02-01,-11.51, 5.15, -10.48, 1.99, 1.71, 7.78, repro,
2001-02-02,-9.79, 4.40, -8.42, 2.00, 1.71, 7.80, repro,
2001-02-03,-9.32, 3.79, -9.19, 2.02, 1.72, 7.86, repro,
2001-02-04,-9.34, 4.17, -6.89, 2.05, 1.80, 8.07, repro,
2001-02-05,-10.34, 3.86, -9.37, 2.09, 1.87, 8.09, repro,
2001-02-06,-10.17, 4.47, -12.49, 2.04, 1.76, 7.97, repro,
2001-02-07,-10.59, 5.05, -11.96, 2.04, 1.74, 7.91, repro,
2001-02-08,-10.39, 4.00, 3.35, 2.15, 1.93, 8.52, repro,
2001-02-09,-10.54, 3.81, -7.00, 2.04, 1.78, 7.96, repro,
2001-02-10,-9.06, 4.40, -5.61, 2.00, 1.72, 7.80, repro,
2001-02-11,-10.84, 5.14, 1.51, 2.09, 1.84, 8.07, repro,
2001-02-12,-10.33, 4.25, -7.85, 2.12, 1.81, 8.15, repro,
2001-02-13,-10.78, 4.48, -5.19, 2.02, 1.72, 7.81, repro,
2001-02-14,-10.12, 6.08, -4.99, 2.06, 1.82, 7.94, repro,
2001-02-15,-9.62, 4.67, -6.16, 2.08, 1.84, 8.02, repro,
2001-02-16,-9.24, 4.89, -12.12, 2.10, 1.76, 8.11, repro,
2001-02-17,-10.25, 5.63, -8.33, 2.19, 1.88, 8.32, repro,
2001-02-18,-10.32, 4.07, -7.76, 2.06, 1.80, 7.95, repro,
2001-02-19,-11.25, 4.64, -4.78, 2.23, 1.87, 8.45, repro,
2001-02-20,-9.91, 3.79, -13.26, 2.15, 1.94, 8.38, repro,
2001-02-21,-9.99, 5.48, -9.21, 2.17, 1.89, 8.29, repro,
2001-02-22,-9.92, 4.38, -12.53, 2.05, 1.76, 7.94, repro,
2001-02-23,-9.70, 4.80, 0.44, 2.07, 1.84, 8.07, repro,
2001-02-24,-10.96, 4.97, -1.01, 2.24, 1.97, 8.55, repro,
2001-02-25,-10.31, 5.32, -10.19, 2.07, 1.84, 8.06, repro,
2001-02-26,-9.91, 4.32, -9.40, 2.24, 2.06, 8.66, repro,
2001-02-27,-9.66, 4.31, -9.35, 2.10, 1.84, 8.44, repro,
2001-02-28,-10.19, 4.19, -8.05, 2.17, 1.87, 8.78, repro,
2001-03-01,-12.22, 2.98, -3.07, 2.47, 2.22, 9.51, repro,
2001-03-02,-9.57, 2.71, -2.81, 2.53, 2.28, 10.02, repro,
2001-03-03,-8.89, 3.69, -2.23, 2.29, 2.13, 8.86, repro,
2001-03-04,-12.23, 5.29, -6.15, 2.13, 1.85, 8.39, repro,
2001-03-05,-12.27, 3.45, -8.23, 2.20, 1.94, 8.50, repro,
2001-03-06,-13.20, 2.98, -16.08, 2.04, 1.79, 8.04, repro,
2001-03-07,-12.59, 4.61, -6.51, 2.02, 1.76, 7.85, repro,
2001-03-08,-13.33, 5.02, 0.08, 2.20, 1.96, 8.47, repro,
2001-03-09,-13.73, 3.54, -4.97, 2.20, 1.94, 8.67, repro,
2001-03-10,-13.03, 2.10, 0.52, 2.19, 1.88, 8.49, repro,
2001-03-11,-13.65, 3.85, 1.47, 2.30, 2.05, 8.67, repro,
2001-03-12,-12.47, 3.22, -5.72, 2.28, 2.05, 8.64, repro,
2001-03-13,-12.63, 4.56, -2.60, 2.20, 1.96, 8.52, repro,
2001-03-14,-13.76, 4.46, -4.73, 2.03, 1.89, 8.05, repro,
2001-03-15,-11.96, 4.13, -4.46, 2.08, 1.91, 8.11, repro,
2001-03-16,-10.63, 2.85, -7.25, 2.13, 1.98, 8.37, repro,
2001-03-17,-15.72, 3.38, -4.82, 2.06, 1.84, 7.97, repro,
2001-03-18,-12.01, 3.13, -11.36, 2.03, 1.87, 7.90, repro,
2001-03-19,-10.50, 5.17, -9.84, 2.03, 1.98, 8.00, repro,
2001-03-20,-10.15, 6.33, -13.43, 2.64, 2.29, 10.87, repro,
2001-03-21,-12.80, 3.25, -10.69, 2.06, 1.89, 7.99, repro,
2001-03-22,-10.09, 5.48, -2.08, 2.04, 1.87, 7.94, repro,
2001-03-23,-11.29, 4.87, -3.90, 2.08, 1.91, 8.13, repro,
2001-03-24,-15.96, 2.77, -10.85, 2.09, 1.92, 8.10, repro,
2001-03-25,-13.52, 2.97, -13.86, 2.12, 1.98, 8.37, repro,
2001-03-26,-11.70, 3.51, -11.38, 2.12, 1.84, 8.32, repro,
2001-03-27,-15.64, 2.00, -3.10, 2.19, 1.86, 8.36, repro,
2001-03-28,-15.04, 1.00, -7.75, 2.20, 1.92, 8.45, repro,
2001-03-29,-16.55, 3.11, -9.88, 2.11, 1.91, 8.23, repro,
2001-03-30,-15.52, 1.88, -4.94, 2.12, 1.91, 8.11, repro,
2001-03-31,-15.37, 2.43, -8.95, 2.12, 1.95, 8.30, repro,
2001-04-01,-17.10, 1.70, -1.08, 2.13, 2.02, 8.30, repro,
2001-04-02,-16.87, 1.81, -1.22, 2.18, 2.00, 8.52, repro,
2001-04-03,-12.43, 3.39, -3.49, 2.18, 1.88, 8.27, repro,
2001-04-04,-11.86, 1.41, -4.63, 2.13, 1.91, 8.30, repro,
2001-04-05,-12.36, 1.73, -2.99, 2.12, 1.89, 8.35, repro,
2001-04-06,-13.21, 2.85, -4.74, 2.08, 1.83, 8.17, repro,
2001-04-07,-16.81, 0.06, -7.35, 2.14, 1.89, 8.33, repro,
2001-04-08,-13.41, -0.38, -0.90, 2.11, 1.95, 8.17, repro,
2001-04-09,-15.00, 2.98, -4.51, 2.12, 1.97, 8.30, repro,
2001-04-10,-13.53, 2.36, -0.65, 2.08, 1.84, 8.06, repro,